Location: Aubervilles
(48.9167°N, 2.3833°E)
Time: 12:12:28
(UTC+00:00)

Cosmos 1553 Rocket - Pass Details

Date: 03 February 2023
Orbit: 942 x 1007 km, 82.9° (Epoch: 25 March)

Event Time Altitude Azimuth Distance (km) Brightness Sun altitude
Rises 17:53:55 0° 161° (SSE) 3,597 6.9 -10.6°
Reaches altitude 10° 17:56:31 10° 154° (SSE) 2,661 6.2 -11.1°
Maximum altitude 18:02:05 39° 88° (E) 1,400 4.4 -12.0°
Drops below altitude 10° 18:07:43 10° 22° (NNE) 2,709 6.0 -12.9°
Sets 18:10:24 0° 15° (NNE) 3,669 6.8 -13.3°
